Location: Casteau
(50.5142°N, 4.0161°E)
Time: 02:36:12
(UTC+00:00)

Cosmos 2227 Rocket - Pass Details

Date: 18 September 2020
Orbit: 840 x 844 km, 71.0° (Epoch: 24 October)

Event Time Altitude Azimuth Distance (km) Brightness Sun altitude
Rises 18:13:34 0° 236° (SW) 3,389 6.2 -4.5°
Reaches altitude 10° 18:16:12 10° 245° (WSW) 2,458 5.6 -4.9°
Maximum altitude 18:21:24 37° 312° (NW) 1,293 3.9 -5.8°
Drops below altitude 10° 18:26:37 10° 19° (NNE) 2,469 4.6 -6.6°
Sets 18:29:17 0° 28° (NNE) 3,407 5.2 -7.0°
